FW6726 Weather Reports


Display with metric or nautical units.
time (UTC)temp
F
wind
direction
speed
MPH
gust
MPH
rain 1hr
in
rain 24hr
in
rain mn
in
humidity
%
barometer
mb
20260831230820 78 109 3.0 7.0 0.00 0.00 0.00 59 1015.7
20260831230319 78 96 4.0 7.0 0.00 0.00 0.00 59 1015.6
20260831230035 78 86 2.0 9.0 0.00 0.00 0.00 59 1015.7
20260831225319 78 106 4.0 9.0 0.00 0.00 0.00 59 1015.7
20260831224819 79 92 4.0 7.0 0.00 0.00 0.00 58 1015.8
20260831224319 79 96 4.0 7.0 0.00 0.00 0.00 58 1015.9
20260831223819 79 130 3.0 7.0 0.00 0.00 0.00 59 1016.0
20260831223319 79 96 4.0 7.0 0.00 0.00 0.00 59 1016.0
20260831223042 79 93 4.0 7.0 0.00 0.00 0.00 59 1016.1
20260831222318 79 109 3.0 6.0 0.00 0.00 0.00 59 1016.1
20260831221819 79 120 2.0 7.0 0.00 0.00 0.00 59 1016.1
20260831221319 79 96 3.0 7.0 0.00 0.00 0.00 59 1016.1
20260831220818 79 92 4.0 7.0 0.00 0.00 0.00 59 1016.2
20260831220318 80 124 3.0 7.0 0.00 0.00 0.00 59 1016.3
20260831215818 79 102 3.0 7.0 0.00 0.00 0.00 59 1016.3
20260831215318 79 90 4.0 10.0 0.00 0.00 0.00 59 1016.2
20260831214817 80 103 5.0 10.0 0.00 0.00 0.00 59 1016.3
20260831214804 79 96 3.0 9.0 0.00 0.00 0.00 60 1016.3
20260831213818 79 73 4.0 9.0 0.00 0.00 0.00 60 1016.3
20260831213318 79 97 5.0 10.0 0.00 0.00 0.00 60 1016.4
20260831212817 79 104 4.0 10.0 0.00 0.00 0.00 60 1016.5
20260831212317 80 93 4.0 9.0 0.00 0.00 0.00 60 1016.6
20260831212307 80 144 3.0 6.0 0.00 0.00 0.00 61 1016.6
20260831211318 79 109 4.0 6.0 0.00 0.00 0.00 62 1016.8
20260831210817 79 151 3.0 9.0 0.00 0.00 0.00 60 1016.8
20260831210316 80 135 4.0 10.0 0.00 0.00 0.00 60 1016.8
20260831205817 80 138 4.0 10.0 0.00 0.00 0.00 60 1016.7
20260831205536 80 113 4.0 7.0 0.00 0.00 0.00 60 1016.7
20260831204816 80 137 4.0 10.0 0.00 0.00 0.00 61 1016.7
20260831204539 79 97 5.0 12.0 0.00 0.00 0.00 62 1016.6
20260831204301 79 113 5.0 12.0 0.00 0.00 0.00 61 1016.6
20260831203317 80 111 6.0 11.0 0.00 0.00 0.00 61 1016.5
20260831202816 80 124 3.0 9.0 0.00 0.00 0.00 61 1016.6
20260831202316 80 44 5.0 7.0 0.00 0.00 0.00 60 1016.7
20260831201816 80 100 4.0 7.0 0.00 0.00 0.00 60 1016.7
20260831201316 81 104 3.0 6.0 0.00 0.00 0.00 60 1016.8
20260831200817 81 140 4.0 6.0 0.00 0.00 0.00 60 1016.8
20260831200316 80 102 3.0 7.0 0.00 0.00 0.00 61 1016.7
20260831195818 80 114 2.0 9.0 0.00 0.00 0.00 60 1016.7
20260831195316 80 89 3.0 9.0 0.00 0.00 0.00 60 1016.8
20260831194817 81 107 4.0 9.0 0.00 0.00 0.00 57 1016.8
20260831194316 81 93 4.0 9.0 0.00 0.00 0.00 56 1016.8
20260831193814 81 100 3.0 7.0 0.00 0.00 0.00 56 1016.8
20260831193315 82 107 4.0 6.0 0.00 0.00 0.00 57 1016.8
20260831192815 82 125 3.0 6.0 0.00 0.00 0.00 57 1016.9
20260831192314 82 107 3.0 6.0 0.00 0.00 0.00 57 1016.9
20260831191814 82 114 3.0 6.0 0.00 0.00 0.00 58 1017.0
20260831191314 81 99 2.0 10.0 0.00 0.00 0.00 59 1017.1
20260831190814 81 79 5.0 10.0 0.00 0.00 0.00 59 1017.1
20260831190314 81 131 3.0 7.0 0.00 0.00 0.00 59 1017.2
20260831185813 80 110 2.0 7.0 0.00 0.00 0.00 61 1017.1
20260831185754 79 118 2.0 11.0 0.00 0.00 0.00 62 1017.1
20260831184815 79 118 5.0 11.0 0.00 0.00 0.00 63 1017.0
20260831184316 78 85 5.0 12.0 0.00 0.00 0.00 66 1017.1
20260831183815 77 93 6.0 13.0 0.00 0.00 0.00 66 1017.1
20260831183544 76 97 8.0 13.0 0.00 0.00 0.00 70 1017.1
20260831182814 75 89 9.0 13.0 0.00 0.00 0.00 70 1017.0
20260831182315 75 94 9.0 13.0 0.00 0.00 0.00 69 1017.1
20260831182039 75 85 9.0 12.0 0.00 0.00 0.00 70 1017.0
20260831181314 75 87 8.0 13.0 0.00 0.00 0.00 71 1017.1
20260831180813 75 87 6.0 13.0 0.00 0.00 0.00 72 1017.1
20260831180313 75 83 8.0 13.0 0.00 0.00 0.00 71 1017.1
20260831175812 74 78 8.0 12.0 0.00 0.00 0.00 72 1017.0
20260831175533 75 89 9.0 12.0 0.00 0.00 0.00 72 1017.0
20260831174812 75 106 10.0 13.0 0.00 0.00 0.00 71 1017.0
20260831174312 75 93 7.0 13.0 0.00 0.00 0.00 72 1017.1
20260831173812 74 94 9.0 13.0 0.00 0.00 0.00 72 1017.0
20260831173312 74 83 9.0 13.0 0.00 0.00 0.00 73 1016.9
20260831172812 74 82 9.0 15.0 0.00 0.00 0.00 73 1017.0
20260831172312 74 92 10.0 15.0 0.00 0.00 0.00 73 1016.8
20260831171813 74 89 10.0 14.0 0.00 0.00 0.00 73 1016.7
20260831171313 75 72 10.0 14.0 0.00 0.00 0.00 72 1016.7
20260831170813 75 61 11.0 14.0 0.00 0.00 0.00 71 1016.5
20260831170312 76 75 9.0 14.0 0.00 0.00 0.00 69 1016.5
20260831165813 76 87 9.0 14.0 0.00 0.00 0.00 68 1016.4
20260831165313 75 86 9.0 14.0 0.00 0.00 0.00 68 1016.3
20260831164813 75 66 9.0 14.0 0.00 0.00 0.00 66 1016.3
20260831164313 75 86 10.0 14.0 0.00 0.00 0.00 66 1016.2
20260831164034 75 62 7.0 10.0 0.00 0.00 0.00 65 1016.1
20260831163312 74 82 5.0 9.0 0.00 0.00 0.00 66 1016.2
20260831162813 74 72 7.0 9.0 0.00 0.00 0.00 67 1016.2
20260831162312 74 63 4.0 9.0 0.00 0.00 0.00 70 1016.1
20260831161813 73 100 2.0 5.0 0.00 0.00 0.00 73 1016.2
20260831161538 72 103 2.0 7.0 0.00 0.00 0.00 74 1016.2
20260831160813 72 104 3.0 7.0 0.00 0.00 0.00 75 1016.2
20260831160311 71 102 4.0 5.0 0.00 0.00 0.00 76 1016.1
20260831155814 71 102 3.0 7.0 0.00 0.00 0.00 77 1016.0
20260831155310 70 102 3.0 7.0 0.00 0.00 0.00 78 1015.9
20260831154811 69 90 2.0 9.0 0.00 0.00 0.00 78 1015.9
20260831154309 69 72 6.0 9.0 0.00 0.00 0.00 78 1015.8
20260831153810 68 80 6.0 7.0 0.00 0.00 0.00 80 1015.8
20260831153309 68 82 5.0 6.0 0.00 0.00 0.00 81 1015.8
20260831152810 67 73 4.0 6.0 0.00 0.00 0.00 82 1015.9
20260831152309 67 85 4.0 5.0 0.00 0.00 0.00 83 1015.9
20260831151810 66 78 3.0 5.0 0.00 0.00 0.00 84 1016.0
20260831151309 66 82 3.0 5.0 0.00 0.00 0.00 86 1016.0
20260831150810 65 111 2.0 4.0 0.00 0.00 0.00 86 1016.1
20260831150308 65 173 0.0 2.0 0.00 0.00 0.00 86 1016.0
20260831145809 64 173 0.0 2.0 0.00 0.00 0.00 86 1015.9
20260831145308 64 175 0.0 2.0 0.00 0.00 0.00 86 1015.9
20260831145032 64 175 1.0 3.0 0.00 0.00 0.00 86 1015.8
20260831144308 64 175 2.0 3.0 0.00 0.00 0.00 86 1015.7
20260831143809 64 173 2.0 4.0 0.00 0.00 0.00 86 1015.6
20260831143308 64 173 2.0 4.0 0.00 0.00 0.00 85 1015.5
20260831143255 64 59 0.0 2.0 0.00 0.00 0.00 84 1015.5
20260831142308 63 59 1.0 2.0 0.00 0.00 0.00 84 1015.3
20260831141810 64 59 1.0 2.0 0.00 0.00 0.00 84 1015.2
20260831141308 63 59 0.0 1.0 0.00 0.00 0.00 83 1015.1
20260831140809 63 59 0.0 1.0 0.00 0.00 0.00 82 1015.1
20260831140525 63 59 0.0 2.0 0.00 0.00 0.00 82 1014.9
20260831135810 63 59 1.0 3.0 0.00 0.00 0.00 82 1014.8
20260831135308 63 59 2.0 3.0 0.00 0.00 0.00 82 1014.7
20260831134809 63 59 2.0 3.0 0.00 0.00 0.00 82 1014.6
20260831134524 63 47 3.0 3.0 0.00 0.00 0.00 83 1014.5
20260831133809 63 345 1.0 2.0 0.00 0.00 0.00 84 1014.5
20260831133307 63 334 0.0 2.0 0.00 0.00 0.00 84 1014.4
20260831132808 63 334 1.0 2.0 0.00 0.00 0.00 85 1014.3
20260831132307 63 334 2.0 2.0 0.00 0.00 0.00 85 1014.3
20260831132033 63 333 0.0 6.0 0.00 0.00 0.00 86 1014.5
20260831131307 63 321 2.0 6.0 0.00 0.00 0.00 86 1014.4
20260831130808 63 310 2.0 7.0 0.00 0.00 0.00 86 1014.5
20260831130306 63 285 4.0 7.0 0.00 0.00 0.00 85 1014.4
20260831125807 63 279 4.0 5.0 0.00 0.00 0.00 84 1014.5
20260831125306 63 269 4.0 5.0 0.00 0.00 0.00 83 1014.5
20260831124807 63 274 2.0 4.0 0.00 0.00 0.00 84 1014.6
20260831124749 64 220 2.0 4.0 0.00 0.00 0.00 84 1014.4
20260831123808 64 216 3.0 4.0 0.00 0.00 0.00 83 1014.4
20260831123307 63 237 3.0 4.0 0.00 0.00 0.00 82 1014.4
20260831122808 63 248 2.0 7.0 0.00 0.00 0.00 81 1014.3
20260831122306 63 250 4.0 7.0 0.00 0.00 0.00 80 1014.2
20260831121807 63 264 5.0 7.0 0.00 0.00 0.00 81 1014.3
20260831121306 63 268 4.0 9.0 0.00 0.00 0.00 81 1014.2
20260831120807 64 241 6.0 9.0 0.00 0.00 0.00 83 1014.3
20260831120306 64 271 4.0 5.0 0.00 0.00 0.00 81 1014.4
20260831115807 64 274 4.0 5.0 0.00 0.00 0.00 81 1014.3
20260831115306 64 306 2.0 3.0 0.00 0.00 0.00 80 1014.4
20260831114806 64 18 0.0 0.0 0.00 0.00 0.00 78 1014.4
20260831114305 65 18 0.0 0.0 0.00 0.00 0.00 78 1014.3
20260831114034 65 18 0.0 0.0 0.00 0.00 0.00 78 1014.2
20260831113305 65 20 0.0 0.0 0.00 0.00 0.00 78 1014.3
20260831112806 65 20 0.0 0.0 0.00 0.00 0.00 77 1014.4
20260831112307 65 20 0.0 0.0 0.00 0.00 0.00 77 1014.3
20260831111805 65 20 0.0 0.0 0.00 0.00 0.00 76 1014.3
20260831111305 66 20 0.0 0.0 0.00 0.00 0.00 74 1014.4
20260831111027 66 20 0.0 0.0 0.00 0.00 0.00 74 1014.4
20260831110305 66 18 0.0 2.0 0.00 0.00 0.00 75 1014.4
20260831110031 67 8 2.0 2.0 0.00 0.00 0.00 76 1014.3
20260831105306 67 8 1.0 2.0 0.00 0.00 0.00 76 1014.3
20260831104804 67 8 1.0 2.0 0.00 0.00 0.00 77 1014.3
20260831104526 67 8 0.0 2.0 0.00 0.00 0.00 76 1014.2
20260831103804 67 8 1.0 3.0 0.00 0.00 0.00 76 1014.2
20260831103527 67 8 1.0 3.0 0.00 0.00 0.00 76 1014.3
20260831103031 67 6 2.0 3.0 0.00 0.00 0.00 73 1014.3
20260831102524 67 4 0.0 2.0 0.00 0.00 0.00 72 1014.2
20260831101802 67 4 1.0 3.0 0.00 0.00 0.00 69 1014.3
20260831101522 67 4 2.0 3.0 0.00 0.00 0.00 69 1014.4
20260831100803 67 6 2.0 3.0 0.00 0.00 0.00 71 1014.4
20260831100303 67 4 0.0 3.0 0.00 0.00 0.00 68 1014.3
20260831095802 67 4 1.0 3.0 0.00 0.00 0.00 69 1014.3
20260831095301 67 4 2.0 2.0 0.00 0.00 0.00 71 1014.2
20260831094802 67 4 1.0 3.0 0.00 0.00 0.00 72 1014.2
20260831094301 67 4 2.0 3.0 0.00 0.00 0.00 72 1014.1
20260831093801 67 6 0.0 0.0 0.00 0.00 0.00 72 1014.0
20260831093301 67 6 0.0 0.0 0.00 0.00 0.00 71 1014.0
20260831092801 67 6 0.0 0.0 0.00 0.00 0.00 71 1014.0
20260831092301 67 6 0.0 0.0 0.00 0.00 0.00 72 1014.1
20260831091800 67 6 0.0 0.0 0.00 0.00 0.00 71 1014.0
20260831091302 67 6 0.0 0.0 0.00 0.00 0.00 71 1014.0
20260831090802 68 4 0.0 0.0 0.00 0.00 0.00 70 1014.0
20260831090526 68 4 0.0 0.0 0.00 0.00 0.00 71 1014.0
20260831085801 68 4 0.0 0.0 0.00 0.00 0.00 71 1014.0
20260831085306 68 4 0.0 0.0 0.00 0.00 0.00 71 1014.0
20260831084801 67 4 0.0 2.0 0.00 0.00 0.00 70 1014.0
20260831084302 67 4 0.0 3.0 0.00 0.00 0.00 70 1014.0
20260831083801 67 4 2.0 3.0 0.00 0.00 0.00 71 1014.0
20260831083302 67 4 2.0 3.0 0.00 0.00 0.00 70 1014.0
20260831082801 67 4 2.0 3.0 0.00 0.00 0.00 71 1014.1
20260831082306 67 35 2.0 3.0 0.00 0.00 0.00 72 1014.2
20260831081800 67 35 2.0 2.0 0.00 0.00 0.00 75 1014.2
20260831081302 67 35 1.0 3.0 0.00 0.00 0.00 76 1014.2
20260831081016 67 35 0.0 4.0 0.00 0.00 0.00 77 1014.3
20260831080302 67 35 3.0 4.0 0.00 0.00 0.00 77 1014.3
20260831075801 67 24 1.0 3.0 0.00 0.00 0.00 77 1014.2
20260831075301 67 0 2.0 5.0 0.00 0.00 0.00 76 1014.3
20260831074800 67 336 2.0 5.0 0.00 0.00 0.00 75 1014.2
20260831074301 67 87 1.0 3.0 0.00 0.00 0.00 74 1014.3
20260831073800 67 93 2.0 3.0 0.00 0.00 0.00 73 1014.2
20260831073301 67 113 0.0 2.0 0.00 0.00 0.00 73 1014.1
20260831072759 67 155 0.0 2.0 0.00 0.00 0.00 73 1014.0
20260831072301 67 155 0.0 2.0 0.00 0.00 0.00 74 1014.0
20260831071759 68 155 0.0 1.0 0.00 0.00 0.00 73 1014.0
20260831071301 68 155 0.0 2.0 0.00 0.00 0.00 74 1013.9
20260831070759 68 155 1.0 2.0 0.00 0.00 0.00 74 1013.9
20260831070522 68 155 1.0 2.0 0.00 0.00 0.00 73 1013.8
20260831065757 68 155 1.0 2.0 0.00 0.00 0.00 73 1013.9
20260831065258 68 155 0.0 0.0 0.00 0.00 0.00 72 1013.8
20260831064758 68 155 0.0 2.0 0.00 0.00 0.00 72 1013.8
20260831064524 69 155 0.0 2.0 0.00 0.00 0.00 72 1013.7
20260831063757 69 155 0.0 2.0 0.00 0.00 0.00 73 1013.7
20260831063258 69 155 1.0 3.0 0.00 0.00 0.00 73 1013.7
20260831062757 69 155 3.0 3.0 0.00 0.00 0.00 73 1013.6
20260831062258 69 155 0.0 2.0 0.00 0.00 0.00 73 1013.8
20260831061757 69 155 2.0 2.0 0.00 0.00 0.00 73 1013.8
20260831061258 69 154 0.0 1.0 0.00 0.00 0.00 72 1013.8
20260831060756 69 154 1.0 2.0 0.00 0.00 0.00 72 1013.8
20260831060257 70 154 0.0 2.0 0.00 0.00 0.00 73 1013.8
20260831055756 70 154 0.0 2.0 0.00 0.00 0.00 73 1013.8
20260831055257 70 154 1.0 2.0 0.00 0.00 0.00 73 1013.7
20260831055022 70 154 2.0 3.0 0.00 0.00 0.00 72 1013.7
20260831054256 70 155 1.0 3.0 0.00 0.00 0.00 72 1013.8
20260831053756 70 155 2.0 2.0 0.00 0.00 0.00 72 1013.8
20260831053519 70 155 0.0 2.0 0.00 0.00 0.00 71 1013.8
20260831052756 71 155 0.0 0.0 0.00 0.00 0.00 70 1013.8
20260831052258 71 155 0.0 0.0 0.00 0.00 0.00 70 1013.8
20260831051756 71 155 0.0 0.0 0.00 0.00 0.00 70 1013.8
20260831051258 71 155 0.0 0.0 0.00 0.00 0.00 71 1013.9
20260831051016 71 155 0.0 2.0 0.00 0.00 0.00 71 1013.8
20260831050258 71 155 0.0 3.0 0.00 0.00 0.00 71 1013.9
20260831045756 71 155 1.0 3.0 0.00 0.00 0.00 70 1013.9
20260831045257 72 154 0.0 2.0 0.00 0.00 0.00 69 1013.9
20260831044756 73 154 2.0 3.0 0.00 0.00 0.00 69 1013.9
20260831044257 73 154 2.0 3.0 0.00 0.00 0.00 68 1013.8
20260831043755 73 154 0.0 4.0 0.00 0.00 0.00 64 1013.8
20260831043256 74 154 2.0 4.0 0.00 0.00 0.00 60 1013.8
20260831042756 74 128 3.0 4.0 0.00 0.00 0.00 57 1013.8
20260831042257 75 111 4.0 4.0 0.00 0.00 0.00 57 1013.7
20260831041755 75 82 0.0 0.0 0.00 0.00 0.00 57 1013.7
20260831041519 75 82 0.0 0.0 0.00 0.00 0.00 56 1013.6
20260831040753 76 82 0.0 1.0 0.00 0.00 0.00 55 1013.6
20260831040253 76 82 0.0 2.0 0.00 0.00 0.00 54 1013.5
20260831035754 76 82 1.0 2.0 0.00 0.00 0.00 55 1013.4
20260831035253 76 82 1.0 3.0 0.00 0.00 0.00 55 1013.4
20260831034754 76 82 2.0 3.0 0.00 0.00 0.00 55 1013.4
20260831034253 76 82 1.0 3.0 0.00 0.00 0.00 55 1013.4
20260831033753 76 82 2.0 3.0 0.00 0.00 0.00 55 1013.3
20260831033253 77 82 0.0 0.0 0.00 0.00 0.00 54 1013.2
20260831032753 77 82 0.0 1.0 0.00 0.00 0.00 54 1013.1
20260831032252 77 82 1.0 2.0 0.00 0.00 0.00 54 1013.0
20260831031753 77 82 0.0 2.0 0.00 0.00 0.00 54 1013.1
20260831031252 78 82 0.0 1.0 0.00 0.00 0.00 53 1013.0
20260831030753 78 82 0.0 1.0 0.00 0.00 0.00 52 1012.9
20260831030520 78 82 0.0 0.0 0.00 0.00 0.00 52 1012.9
20260831025752 79 82 0.0 0.0 0.00 0.00 0.00 51 1012.9
20260831025515 79 82 0.0 1.0 0.00 0.00 0.00 51 1012.9
20260831025010 79 82 0.0 2.0 0.00 0.00 0.00 51 1012.9
20260831024247 79 82 1.0 2.0 0.00 0.00 0.00 51 1013.0
20260831023745 79 82 0.0 2.0 0.00 0.00 0.00 51 1012.9
20260831023243 80 82 1.0 2.0 0.00 0.00 0.00 49 1012.9
20260831022740 80 82 0.0 1.0 0.00 0.00 0.00 50 1012.9
20260831022238 80 82 0.0 1.0 0.00 0.00 0.00 49 1012.9
20260831021735 80 82 0.0 2.0 0.00 0.00 0.00 48 1013.0
20260831021231 80 82 1.0 2.0 0.00 0.00 0.00 48 1013.1
20260831020731 80 82 0.0 2.0 0.00 0.00 0.00 48 1013.0
20260831020231 80 82 0.0 2.0 0.00 0.00 0.00 48 1013.1
20260831015731 80 82 1.0 2.0 0.00 0.00 0.00 48 1013.1
20260831015231 80 82 0.0 1.0 0.00 0.00 0.00 49 1013.1
20260831014731 80 82 1.0 1.0 0.00 0.00 0.00 50 1013.1
20260831014230 80 82 0.0 2.0 0.00 0.00 0.00 53 1013.2
20260831013732 81 82 1.0 2.0 0.00 0.00 0.00 58 1013.2
20260831013231 81 82 1.0 4.0 0.00 0.00 0.00 56 1013.3
20260831012732 81 82 2.0 4.0 0.00 0.00 0.00 54 1013.3
20260831012231 82 82 2.0 4.0 0.00 0.00 0.00 52 1013.3
20260831011953 83 82 2.0 4.0 0.00 0.00 0.00 49 1013.3
20260831011232 83 85 3.0 4.0 0.00 0.00 0.00 45 1013.3
20260831010732 83 86 2.0 4.0 0.00 0.00 0.00 45 1013.3
20260831010232 83 86 2.0 4.0 0.00 0.00 0.00 46 1013.3
20260831005732 83 86 3.0 5.0 0.00 0.00 0.00 45 1013.4
20260831005233 83 76 4.0 5.0 0.00 0.00 0.00 45 1013.4
20260831004732 83 90 3.0 5.0 0.00 0.00 0.00 44 1013.4
20260831004233 83 90 3.0 5.0 0.00 0.00 0.00 43 1013.4
20260831003955 83 92 3.0 5.0 0.00 0.00 0.00 45 1013.4
20260831003231 83 87 3.0 6.0 0.00 0.00 0.00 48 1013.4
20260831002732 83 73 4.0 6.0 0.00 0.00 0.00 48 1013.5
20260831002232 83 85 4.0 7.0 0.00 0.00 0.00 50 1013.5
20260831001732 84 82 4.0 7.0 0.00 0.00 0.00 50 1013.4
20260831001233 84 79 5.0 7.0 0.00 0.00 0.00 50 1013.5
20260831000733 85 92 4.0 7.0 0.00 0.00 0.00 48 1013.5
20260831000233 85 96 5.0 7.0 0.00 0.00 0.00 50 1013.5
20260830235952 86 73 5.0 7.0 0.00 0.00 0.00 47 1013.5
20260830235234 86 76 4.0 7.0 0.00 0.00 0.00 47 1013.6
20260830234956 86 107 3.0 6.0 0.00 0.00 0.00 46 1013.6
20260830234612 86 104 3.0 9.0 0.00 0.00 0.00 47 1013.7
20260830234604 86 75 5.0 9.0 0.00 0.00 0.00 47 1013.8
20260830234600 86 80 4.0 9.0 0.00 0.00 0.00 47 1013.7
20260830232732 87 96 4.0 9.0 0.00 0.00 0.00 45 1013.8
20260830232232 88 83 5.0 9.0 0.00 0.00 0.00 44 1013.8
20260830231951 88 93 4.0 9.0 0.00 0.00 0.00 45 1013.9
20260830231233 88 93 3.0 7.0 0.00 0.00 0.00 45 1014.0